�������r�C�����j�^�v���󋵏��
Date,Time,5�C6���@���p�r�C��,����,����(m/s)
2021/12/29,00:00,3.9,���쐼,6.5
2021/12/29,00:10,4.1,���쐼,6.1
2021/12/29,00:20,4.0,���쐼,5.3
2021/12/29,00:30,4.2,���쐼,5.1
2021/12/29,00:40,4.2,�쐼,4.8
2021/12/29,00:50,4.2,�쐼,4.1
2021/12/29,01:00,4.0,��쐼,4.2
2021/12/29,01:10,4.2,��쐼,4.4
2021/12/29,01:20,4.0,��쐼,5.6
2021/12/29,01:30,4.0,�쐼,4.7
2021/12/29,01:40,4.1,�쐼,4.8
2021/12/29,01:50,4.3,�쐼,4.2
2021/12/29,02:00,4.0,��쐼,4.1
2021/12/29,02:10,4.0,��쐼,4.5
2021/12/29,02:20,4.2,��쐼,5.2
2021/12/29,02:30,4.1,��쐼,4.8
2021/12/29,02:40,4.1,��쐼,4.6
2021/12/29,02:50,4.2,��쐼,5.3
2021/12/29,03:00,4.1,��쐼,4.8
2021/12/29,03:10,4.1,��쐼,4.7
2021/12/29,03:20,3.9,��쐼,4.7
2021/12/29,03:30,3.9,�쐼,4.9
2021/12/29,03:40,4.2,�쐼,4.6
2021/12/29,03:50,4.1,��쐼,4.2
2021/12/29,04:00,4.2,��쐼,4.3
2021/12/29,04:10,4.1,��쐼,3.9
2021/12/29,04:20,4.1,�쐼,3.8
2021/12/29,04:30,4.1,���쐼,2.8
2021/12/29,04:40,4.0,���k��,6.8
2021/12/29,04:50,4.2,���k��,10.0
2021/12/29,05:00,3.9,���k��,10.3
2021/12/29,05:10,4.1,���k��,11.1
2021/12/29,05:20,4.2,���k��,8.0
2021/12/29,05:30,4.1,��,8.6
2021/12/29,05:40,4.0,��,9.0
2021/12/29,05:50,4.0,���k��,10.2
2021/12/29,06:00,4.0,���k��,9.2
2021/12/29,06:10,4.2,��,6.1
2021/12/29,06:20,4.0,��,5.6
2021/12/29,06:30,4.1,��,5.2
2021/12/29,06:40,3.9,���쐼,5.7
2021/12/29,06:50,4.1,���쐼,5.7
2021/12/29,07:00,4.0,�쐼,4.1
2021/12/29,07:10,4.1,�쐼,4.3
2021/12/29,07:20,4.1,�쐼,6.8
2021/12/29,07:30,4.0,��쐼,6.1
2021/12/29,07:40,4.0,��쐼,5.5
2021/12/29,07:50,4.0,��쐼,5.2
2021/12/29,08:00,4.1,��쐼,4.8
2021/12/29,08:10,3.9,��쐼,4.5
2021/12/29,08:20,4.0,��쐼,4.4
2021/12/29,08:30,3.9,��쐼,4.4
2021/12/29,08:40,4.0,��쐼,5.1
2021/12/29,08:50,3.9,��쐼,5.4
2021/12/29,09:00,4.1,�쐼,4.1
2021/12/29,09:10,4.0,�쐼,3.4
2021/12/29,09:20,4.0,�쐼,5.7
2021/12/29,09:30,4.2,�쐼,5.6
2021/12/29,09:40,4.1,��,3.6
2021/12/29,09:50,4.1,��쐼,3.4
2021/12/29,10:00,4.0,�쐼,5.7
2021/12/29,10:10,4.2,�쐼,5.8
2021/12/29,10:20,4.2,��,5.1
2021/12/29,10:30,4.1,��,8.8
2021/12/29,10:40,4.1,��,7.2
2021/12/29,10:50,4.1,��,6.7
2021/12/29,11:00,4.1,��,5.8
2021/12/29,11:10,4.2,��,8.0
2021/12/29,11:20,4.0,��,8.1
2021/12/29,11:30,4.1,��,7.5
2021/12/29,11:40,4.2,��,9.1
2021/12/29,11:50,4.1,��,8.0
2021/12/29,12:00,4.2,��쓌,9.8
2021/12/29,12:10,4.2,��쓌,7.8
2021/12/29,12:20,4.0,��,6.8
2021/12/29,12:30,4.2,��,6.4
2021/12/29,12:40,4.1,��쓌,6.5
2021/12/29,12:50,4.1,��,7.1
2021/12/29,13:00,4.1,��,7.8
2021/12/29,13:10,4.0,��,6.3
2021/12/29,13:20,4.1,��,5.2
2021/12/29,13:30,4.4,��,4.9
2021/12/29,13:40,4.2,��쐼,7.6
2021/12/29,13:50,3.8,��쐼,9.2
2021/12/29,14:00,4.3,��쐼,8.7
2021/12/29,14:10,3.9,��쐼,7.2
2021/12/29,14:20,4.0,��쐼,8.0
2021/12/29,14:30,4.0,��쐼,7.3
2021/12/29,14:40,4.1,��,8.5
2021/12/29,14:50,4.0,��쐼,6.5
2021/12/29,15:00,4.0,��,8.5
2021/12/29,15:10,4.0,��쐼,7.0
2021/12/29,15:20,4.3,��,5.7
2021/12/29,15:30,4.1,��,6.6
2021/12/29,15:40,4.1,��,8.0
2021/12/29,15:50,4.1,��,6.3
2021/12/29,16:00,4.3,��,5.8
2021/12/29,16:10,4.2,��,3.6
2021/12/29,16:20,4.1,��,4.5
2021/12/29,16:30,4.1,��,5.9
2021/12/29,16:40,4.1,��,7.5
2021/12/29,16:50,4.2,��,8.0
2021/12/29,17:00,4.1,��,6.9
2021/12/29,17:10,4.0,��,6.3
2021/12/29,17:20,4.1,��쐼,4.8
2021/12/29,17:30,4.0,�쐼,3.4
2021/12/29,17:40,4.0,��쐼,3.4
2021/12/29,17:50,4.2,��쐼,3.7
2021/12/29,18:00,4.1,��쐼,2.9
2021/12/29,18:10,4.1,��쐼,4.1
2021/12/29,18:20,4.2,��쐼,4.2
2021/12/29,18:30,4.1,��쐼,3.1
2021/12/29,18:40,4.2,��쐼,2.3
2021/12/29,18:50,4.1,��쐼,1.9
2021/12/29,19:00,4.0,��쐼,2.8
2021/12/29,19:10,4.1,��쐼,2.3
2021/12/29,19:20,4.2,�쐼,2.6
2021/12/29,19:30,4.2,���쐼,2.6
2021/12/29,19:40,4.1,��,2.3
2021/12/29,19:50,4.0,�쐼,1.5
2021/12/29,20:00,4.0,��쐼,1.5
2021/12/29,20:10,4.0,�쐼,2.9
2021/12/29,20:20,4.2,�쐼,5.1
2021/12/29,20:30,4.1,�쐼,5.5
2021/12/29,20:40,4.0,�쐼,6.3
2021/12/29,20:50,3.9,���쐼,5.4
2021/12/29,21:00,4.0,���쐼,3.9
2021/12/29,21:10,4.1,���쐼,3.0
2021/12/29,21:20,4.1,���쐼,3.7
2021/12/29,21:30,4.1,���쐼,5.4
2021/12/29,21:40,4.1,���쐼,5.1
2021/12/29,21:50,3.9,�쐼,6.8
2021/12/29,22:00,4.1,��쐼,8.0
2021/12/29,22:10,4.1,�쐼,9.2
2021/12/29,22:20,4.2,���쐼,9.8
2021/12/29,22:30,3.9,���쐼,10.3
2021/12/29,22:40,3.9,�쐼,9.1
2021/12/29,22:50,4.2,���쐼,8.2
2021/12/29,23:00,4.2,�쐼,8.2
2021/12/29,23:10,4.2,�쐼,8.6
2021/12/29,23:20,4.1,�쐼,7.5
2021/12/29,23:30,4.1,���쐼,6.2
2021/12/29,23:40,4.0,���k��,4.2
2021/12/29,23:50,4.2,���k��,4.4
